This is the latest recevied weather packets stored in our database for station/object KC1IUC-15. If no packets are shown the sender has not sent any weather packets the latest 10 day(s).
| Time | Temp. | Humidity | Pressure | Rain* | Wind** | Luminosity | Snow |
|---|---|---|---|---|---|---|---|
| 1777653604 | 15.56° C | 32% | 1010.6 hPa | 0 mm | - | 802 W/m² | - |
| 1777653304 | 15.56° C | 32% | 1011 hPa | 0 mm | - | 832 W/m² | - |
| 1777653004 | 16.11° C | 30% | 1011 hPa | 0 mm | - | 786 W/m² | - |
| 1777652704 | 16.67° C | 32% | 1011 hPa | 0 mm | - | 764 W/m² | - |
| 1777652404 | 16.11° C | 35% | 1011 hPa | 0 mm | - | 751 W/m² | - |
| 1777652104 | 15.56° C | 35% | 1011.3 hPa | 0 mm | - | 750 W/m² | - |
| 1777651804 | 15° C | 35% | 1011 hPa | 0 mm | - | 746 W/m² | - |
| 1777651504 | 15° C | 35% | 1011.3 hPa | 0 mm | - | 746 W/m² | - |
| 1777651204 | 15.56° C | 35% | 1011.3 hPa | 0 mm | - | 735 W/m² | - |
| 1777650904 | 15.56° C | 38% | 1011.3 hPa | 0 mm | - | 128 W/m² | - |
| 1777650604 | 15° C | 36% | 1011.3 hPa | 0 mm | - | 691 W/m² | - |
| 1777650304 | 15° C | 36% | 1011.3 hPa | 0 mm | - | 691 W/m² | - |
| 1777650004 | 15° C | 37% | 1011.3 hPa | 0 mm | - | 236 W/m² | - |
| 1777649704 | 15° C | 36% | 1011.3 hPa | 0 mm | - | 742 W/m² | - |
| 1777649404 | 15° C | 40% | 1011.6 hPa | 0 mm | - | 688 W/m² | - |
| 1777649104 | 15° C | 39% | 1011.6 hPa | 0 mm | - | 686 W/m² | - |
| 1777648804 | 15° C | 38% | 1011.6 hPa | 0 mm | - | 720 W/m² | - |
| 1777648504 | 14.44° C | 37% | 1011.3 hPa | 0 mm | - | 662 W/m² | - |
| 1777648204 | 14.44° C | 36% | 1011.3 hPa | 0 mm | - | 651 W/m² | - |
| 1777647904 | 14.44° C | 37% | 1011.3 hPa | 0 mm | - | 637 W/m² | - |
| 1777647604 | 14.44° C | 41% | 1011.6 hPa | 0 mm | - | 655 W/m² | - |
| 1777647304 | 13.89° C | 42% | 1011.6 hPa | 0 mm | - | 646 W/m² | - |
| 1777647004 | 13.33° C | 42% | 1011.6 hPa | 0 mm | - | 618 W/m² | - |
| 1777646704 | 13.89° C | 41% | 1011.6 hPa | 0 mm | - | 614 W/m² | - |
| 1777646404 | 13.89° C | 42% | 1011.6 hPa | 0 mm | - | 598 W/m² | - |
* Rain latest hour (hover to see other rain measurements)
** Current wind speed in m/s (hover to see current wind gust speed)